| time (UTC) | temp F | wind direction | speed MPH | gust MPH | rain 1hr in | rain 24hr in | rain mn in | humidity % | barometer mb |
| 20260506222009 | 79 | 10 | 8.0 | 14.0 | 0.00 | 0.00 | 0.00 | 31 | |
| 20260506221509 | 79 | 354 | 7.0 | 11.0 | 0.00 | 0.00 | 0.00 | 31 | |
| 20260506221009 | 79 | 0 | 5.0 | 10.0 | 0.00 | 0.00 | 0.00 | 30 | |
| 20260506220508 | 79 | 15 | 8.0 | 14.0 | 0.00 | 0.00 | 0.00 | 31 | |
| 20260506220008 | 79 | 44 | 7.0 | 13.0 | 0.00 | 0.00 | 0.00 | 32 | |
| 20260506215503 | 78 | 105 | 4.0 | 9.0 | 0.00 | 0.00 | 0.00 | 33 | |
| 20260506215001 | 78 | 316 | 6.0 | 10.0 | 0.00 | 0.00 | 0.00 | 34 | |
| 20260506214459 | 78 | 338 | 8.0 | 12.0 | 0.00 | 0.00 | 0.00 | 33 | |
| 20260506213954 | 78 | 332 | 6.0 | 14.0 | 0.00 | 0.00 | 0.00 | 33 | |
| 20260506213447 | 78 | 309 | 6.0 | 9.0 | 0.00 | 0.00 | 0.00 | 34 | |
| 20260506212943 | 78 | 321 | 8.0 | 13.0 | 0.00 | 0.00 | 0.00 | 33 | |
| 20260506212443 | 78 | 359 | 10.0 | 15.0 | 0.00 | 0.00 | 0.00 | 33 | |
| 20260506211943 | 79 | 319 | 9.0 | 18.0 | 0.00 | 0.00 | 0.00 | 34 | |
| 20260506211442 | 79 | 146 | 5.0 | 9.0 | 0.00 | 0.00 | 0.00 | 35 | |
| 20260506210942 | 78 | 132 | 3.0 | 8.0 | 0.00 | 0.00 | 0.00 | 35 | |
| 20260506210438 | 77 | 7 | 3.0 | 11.0 | 0.00 | 0.00 | 0.00 | 34 | |
| 20260506205938 | 77 | 31 | 4.0 | 8.0 | 0.00 | 0.00 | 0.00 | 35 | |
| 20260506205429 | 77 | 34 | 5.0 | 13.0 | 0.00 | 0.00 | 0.00 | 35 | |
| 20260506204925 | 77 | 37 | 8.0 | 13.0 | 0.00 | 0.00 | 0.00 | 35 | |
| 20260506204424 | 77 | 31 | 8.0 | 17.0 | 0.00 | 0.00 | 0.00 | 36 | |
| 20260506203923 | 77 | 11 | 7.0 | 13.0 | 0.00 | 0.00 | 0.00 | 35 | |
| 20260506203422 | 77 | 110 | 2.0 | 6.0 | 0.00 | 0.00 | 0.00 | 34 | |
| 20260506202922 | 78 | 60 | 5.0 | 9.0 | 0.00 | 0.00 | 0.00 | 34 | |
| 20260506202418 | 77 | 35 | 3.0 | 7.0 | 0.00 | 0.00 | 0.00 | 35 | |
| 20260506201912 | 77 | 31 | 2.0 | 7.0 | 0.00 | 0.00 | 0.00 | 36 | |
| 20260506201411 | 76 | 56 | 2.0 | 7.0 | 0.00 | 0.00 | 0.00 | 36 | |
| 20260506200906 | 76 | 6 | 7.0 | 12.0 | 0.00 | 0.00 | 0.00 | 35 | |
| 20260506200405 | 75 | 15 | 5.0 | 12.0 | 0.00 | 0.00 | 0.00 | 35 | |
| 20260506195905 | 76 | 277 | 2.0 | 5.0 | 0.00 | 0.00 | 0.00 | 37 | |
| 20260506195405 | 75 | 298 | 5.0 | 9.0 | 0.00 | 0.00 | 0.00 | 38 | |
| 20260506194905 | 76 | 346 | 1.0 | 5.0 | 0.00 | 0.00 | 0.00 | 37 | |
| 20260506194404 | 76 | 328 | 3.0 | 10.0 | 0.00 | 0.00 | 0.00 | 37 | |
| 20260506193903 | 75 | 200 | 2.0 | 5.0 | 0.00 | 0.00 | 0.00 | 40 | |
| 20260506192858 | 74 | 305 | 5.0 | 8.0 | 0.00 | 0.00 | 0.00 | 58 | |
| 20260506192357 | 74 | 59 | 4.0 | 8.0 | 0.00 | 0.00 | 0.00 | 59 | |
| 20260506191845 | 74 | 357 | 6.0 | 10.0 | 0.00 | 0.00 | 0.00 | 59 | |
| 20260506191343 | 73 | 46 | 5.0 | 8.0 | 0.00 | 0.00 | 0.00 | 60 | |
| 20260506190840 | 73 | 338 | 5.0 | 9.0 | 0.00 | 0.00 | 0.00 | 60 | |
| 20260506190340 | 72 | 333 | 5.0 | 12.0 | 0.00 | 0.00 | 0.00 | 60 | |
| 20260506185839 | 72 | 309 | 4.0 | 9.0 | 0.00 | 0.00 | 0.00 | 61 | |
| 20260506184333 | 71 | 34 | 2.0 | 5.0 | 0.00 | 0.00 | 0.00 | 62 | |
| 20260506183833 | 70 | 353 | 4.0 | 7.0 | 0.00 | 0.00 | 0.00 | 63 | |
| 20260506183332 | 70 | 356 | 4.0 | 8.0 | 0.00 | 0.00 | 0.00 | 63 | |
| 20260506182831 | 70 | 68 | 2.0 | 6.0 | 0.00 | 0.00 | 0.00 | 55 | |
| 20260506182331 | 69 | 333 | 4.0 | 8.0 | 0.00 | 0.00 | 0.00 | 53 | |
| 20260506181831 | 69 | 343 | 3.0 | 7.0 | 0.00 | 0.00 | 0.00 | 55 | |
| 20260506181329 | 69 | 342 | 4.0 | 8.0 | 0.00 | 0.00 | 0.00 | 53 | |
| 20260506180829 | 69 | 84 | 1.0 | 5.0 | 0.00 | 0.00 | 0.00 | 55 | |
| 20260506180328 | 68 | 166 | 2.0 | 6.0 | 0.00 | 0.00 | 0.00 | 60 | |
| 20260506175823 | 68 | 325 | 2.0 | 6.0 | 0.00 | 0.00 | 0.00 | 51 | |
| 20260506175322 | 68 | 336 | 5.0 | 9.0 | 0.00 | 0.00 | 0.00 | 54 | |
| 20260506174813 | 67 | 335 | 3.0 | 8.0 | 0.00 | 0.00 | 0.00 | 51 | |
| 20260506174312 | 67 | 326 | 2.0 | 7.0 | 0.00 | 0.00 | 0.00 | 65 | |
| 20260506173806 | 67 | 339 | 5.0 | 8.0 | 0.00 | 0.00 | 0.00 | 66 | |
| 20260506173306 | 66 | 357 | 5.0 | 7.0 | 0.00 | 0.00 | 0.00 | 65 | |
| 20260506172806 | 66 | 3 | 6.0 | 9.0 | 0.00 | 0.00 | 0.00 | 66 | |
| 20260506172307 | 66 | 34 | 3.0 | 10.0 | 0.00 | 0.00 | 0.00 | 64 | |
| 20260506171805 | 65 | 300 | 1.0 | 4.0 | 0.00 | 0.00 | 0.00 | 65 | |
| 20260506171305 | 65 | 15 | 3.0 | 7.0 | 0.00 | 0.00 | 0.00 | 64 | |
| 20260506170804 | 65 | 35 | 3.0 | 7.0 | 0.00 | 0.00 | 0.00 | 63 | |
| 20260506170304 | 65 | 294 | 1.0 | 6.0 | 0.00 | 0.00 | 0.00 | 64 | |
| 20260506165802 | 65 | 328 | 2.0 | 5.0 | 0.00 | 0.00 | 0.00 | 65 | |
| 20260506165300 | 64 | 352 | 1.0 | 6.0 | 0.00 | 0.00 | 0.00 | 64 | |
| 20260506164759 | 64 | 51 | 3.0 | 7.0 | 0.00 | 0.00 | 0.00 | 62 | |
| 20260506164258 | 63 | 8 | 1.0 | 6.0 | 0.00 | 0.00 | 0.00 | 63 | |
| 20260506163756 | 63 | 307 | 0.0 | 3.0 | 0.00 | 0.00 | 0.00 | 63 | |
| 20260506163255 | 63 | 311 | 2.0 | 5.0 | 0.00 | 0.00 | 0.00 | 63 | |
| 20260506162754 | 63 | 340 | 4.0 | 7.0 | 0.00 | 0.00 | 0.00 | 63 | |
| 20260506162253 | 62 | 304 | 3.0 | 5.0 | 0.00 | 0.00 | 0.00 | 64 | |
| 20260506161752 | 62 | 300 | 3.0 | 7.0 | 0.00 | 0.00 | 0.00 | 66 | |
| 20260506161251 | 62 | 312 | 5.0 | 8.0 | 0.00 | 0.00 | 0.00 | 65 | |
| 20260506160748 | 63 | 312 | 3.0 | 6.0 | 0.00 | 0.00 | 0.00 | 64 | |
| 20260506160246 | 63 | 62 | 5.0 | 6.0 | 0.00 | 0.00 | 0.00 | 64 | |
| 20260506155743 | 63 | 17 | 2.0 | 4.0 | 0.00 | 0.00 | 0.00 | 65 | |
| 20260506155241 | 63 | 38 | 1.0 | 3.0 | 0.00 | 0.00 | 0.00 | 64 | |
| 20260506154739 | 63 | 59 | 1.0 | 3.0 | 0.00 | 0.00 | 0.00 | 63 | |
| 20260506154238 | 63 | 190 | 0.0 | 1.0 | 0.00 | 0.00 | 0.00 | 65 | |
| 20260506153236 | 61 | 165 | 2.0 | 5.0 | 0.00 | 0.00 | 0.00 | 67 | |
| 20260506152736 | 61 | 155 | 2.0 | 5.0 | 0.00 | 0.00 | 0.00 | 68 | |
| 20260506152233 | 60 | 228 | 3.0 | 8.0 | 0.00 | 0.00 | 0.00 | 68 | |
| 20260506151732 | 59 | 179 | 3.0 | 7.0 | 0.00 | 0.00 | 0.00 | 69 | |
| 20260506151232 | 59 | 188 | 4.0 | 10.0 | 0.00 | 0.00 | 0.00 | 70 | |
| 20260506150729 | 58 | 176 | 7.0 | 10.0 | 0.00 | 0.00 | 0.00 | 69 | |
| 20260506150229 | 58 | 162 | 8.0 | 11.0 | 0.00 | 0.00 | 0.00 | 69 | |
| 20260506145728 | 59 | 172 | 6.0 | 11.0 | 0.00 | 0.00 | 0.00 | 69 | |
| 20260506145227 | 58 | 181 | 3.0 | 6.0 | 0.00 | 0.00 | 0.00 | 71 | |
| 20260506144725 | 58 | 187 | 3.0 | 9.0 | 0.00 | 0.00 | 0.00 | 72 | |
| 20260506144222 | 57 | 215 | 2.0 | 4.0 | 0.00 | 0.00 | 0.00 | 74 | |
| 20260506143722 | 56 | 179 | 1.0 | 4.0 | 0.00 | 0.00 | 0.00 | 76 | |
| 20260506143221 | 55 | 153 | 0.0 | 1.0 | 0.00 | 0.00 | 0.00 | 78 | |
| 20260506142720 | 55 | 0 | 0.0 | 0.0 | 0.00 | 0.00 | 0.00 | 80 | |
| 20260506142219 | 54 | 262 | 0.0 | 3.0 | 0.00 | 0.00 | 0.00 | 80 | |
| 20260506141718 | 54 | 269 | 0.0 | 4.0 | 0.00 | 0.00 | 0.00 | 80 | |
| 20260506141218 | 53 | 293 | 0.0 | 3.0 | 0.00 | 0.00 | 0.00 | 81 | |
| 20260506140718 | 53 | 307 | 1.0 | 3.0 | 0.00 | 0.00 | 0.00 | 82 | |
| 20260506140217 | 53 | 0 | 0.0 | 0.0 | 0.00 | 0.00 | 0.00 | 84 | |
| 20260506135717 | 52 | 0 | 0.0 | 0.0 | 0.00 | 0.00 | 0.00 | 84 | |
| 20260506135217 | 52 | 0 | 0.0 | 0.0 | 0.00 | 0.00 | 0.00 | 85 | |
| 20260506134715 | 51 | 0 | 0.0 | 0.0 | 0.00 | 0.00 | 0.00 | 86 | |
| 20260506134214 | 51 | 308 | 1.0 | 4.0 | 0.00 | 0.00 | 0.00 | 85 | |
| 20260506133714 | 51 | 252 | 3.0 | 6.0 | 0.00 | 0.00 | 0.00 | 85 | |
| 20260506133214 | 51 | 233 | 3.0 | 5.0 | 0.00 | 0.00 | 0.00 | 88 | |
| 20260506132707 | 50 | 219 | 5.0 | 9.0 | 0.00 | 0.00 | 0.00 | 89 | |
| 20260506132206 | 49 | 215 | 5.0 | 8.0 | 0.00 | 0.00 | 0.00 | 90 | |
| 20260506131705 | 49 | 212 | 4.0 | 8.0 | 0.00 | 0.00 | 0.00 | 89 | |
| 20260506131205 | 48 | 208 | 2.0 | 5.0 | 0.00 | 0.00 | 0.00 | 88 | |
| 20260506130704 | 48 | 225 | 2.0 | 5.0 | 0.00 | 0.00 | 0.00 | 87 | |
| 20260506130204 | 48 | 231 | 4.0 | 5.0 | 0.00 | 0.00 | 0.00 | 87 | |
| 20260506125701 | 49 | 232 | 0.0 | 5.0 | 0.00 | 0.00 | 0.00 | 85 | |
| 20260506125201 | 49 | 0 | 0.0 | 0.0 | 0.00 | 0.00 | 0.00 | 86 | |
| 20260506124701 | 49 | 0 | 0.0 | 0.0 | 0.00 | 0.00 | 0.00 | 88 | |
| 20260506124200 | 49 | 343 | 0.0 | 1.0 | 0.00 | 0.00 | 0.00 | 87 | |
| 20260506123156 | 49 | 0 | 0.0 | 0.0 | 0.00 | 0.00 | 0.00 | 87 | |
| 20260506122655 | 49 | 0 | 0.0 | 0.0 | 0.00 | 0.00 | 0.00 | 87 | |
| 20260506122155 | 49 | 0 | 0.0 | 0.0 | 0.00 | 0.00 | 0.00 | 86 | |
| 20260506121655 | 49 | 246 | 1.0 | 3.0 | 0.00 | 0.00 | 0.00 | 86 | |
| 20260506121155 | 50 | 231 | 1.0 | 4.0 | 0.00 | 0.00 | 0.00 | 86 | |
| 20260506120654 | 50 | 323 | 0.0 | 1.0 | 0.00 | 0.00 | 0.00 | 85 | |
| 20260506120151 | 50 | 225 | 1.0 | 5.0 | 0.00 | 0.00 | 0.00 | 86 | |
| 20260506115651 | 50 | 235 | 2.0 | 5.0 | 0.00 | 0.00 | 0.00 | 84 | |
| 20260506114649 | 50 | 262 | 2.0 | 4.0 | 0.00 | 0.00 | 0.00 | 85 | |
| 20260506114149 | 50 | 231 | 3.0 | 5.0 | 0.00 | 0.00 | 0.00 | 84 | |
| 20260506113648 | 50 | 221 | 2.0 | 5.0 | 0.00 | 0.00 | 0.00 | 84 | |
| 20260506113148 | 50 | 229 | 2.0 | 4.0 | 0.00 | 0.00 | 0.00 | 84 | |
| 20260506112644 | 51 | 245 | 3.0 | 6.0 | 0.00 | 0.00 | 0.00 | 84 | |
| 20260506112140 | 51 | 250 | 2.0 | 5.0 | 0.00 | 0.00 | 0.00 | 84 | |
| 20260506111635 | 51 | 229 | 3.0 | 6.0 | 0.00 | 0.00 | 0.00 | 84 | |
| 20260506111134 | 51 | 232 | 0.0 | 3.0 | 0.00 | 0.00 | 0.00 | 84 | |
| 20260506110633 | 51 | 229 | 3.0 | 7.0 | 0.00 | 0.00 | 0.00 | 84 | |
| 20260506110130 | 51 | 215 | 4.0 | 8.0 | 0.00 | 0.00 | 0.00 | 84 | |
| 20260506105627 | 51 | 235 | 5.0 | 9.0 | 0.00 | 0.00 | 0.00 | 84 | |
| 20260506105127 | 51 | 203 | 5.0 | 8.0 | 0.00 | 0.00 | 0.00 | 84 | |
| 20260506104626 | 51 | 219 | 6.0 | 10.0 | 0.00 | 0.00 | 0.00 | 84 | |
| 20260506104126 | 51 | 222 | 6.0 | 11.0 | 0.00 | 0.00 | 0.00 | 84 | |
| 20260506103626 | 51 | 238 | 5.0 | 10.0 | 0.00 | 0.00 | 0.00 | 84 | |
| 20260506103125 | 51 | 212 | 5.0 | 9.0 | 0.00 | 0.00 | 0.00 | 84 | |
| 20260506102624 | 51 | 233 | 5.0 | 10.0 | 0.00 | 0.00 | 0.00 | 84 | |
| 20260506102124 | 51 | 235 | 5.0 | 9.0 | 0.00 | 0.00 | 0.00 | 84 | |
| 20260506101625 | 51 | 217 | 7.0 | 12.0 | 0.00 | 0.00 | 0.00 | 84 | |
| 20260506101121 | 51 | 245 | 4.0 | 9.0 | 0.00 | 0.00 | 0.00 | 84 | |
| 20260506100620 | 51 | 225 | 5.0 | 10.0 | 0.00 | 0.00 | 0.00 | 84 | |
| 20260506100119 | 51 | 222 | 5.0 | 9.0 | 0.00 | 0.00 | 0.00 | 83 | |
| 20260506095617 | 52 | 224 | 5.0 | 10.0 | 0.00 | 0.00 | 0.00 | 83 | |
| 20260506095117 | 52 | 229 | 6.0 | 10.0 | 0.00 | 0.00 | 0.00 | 83 | |
| 20260506094617 | 52 | 233 | 5.0 | 12.0 | 0.00 | 0.00 | 0.00 | 83 | |
| 20260506094117 | 52 | 239 | 4.0 | 9.0 | 0.00 | 0.00 | 0.00 | 82 | |
| 20260506093615 | 52 | 235 | 6.0 | 11.0 | 0.00 | 0.00 | 0.00 | 83 | |
| 20260506093114 | 52 | 235 | 5.0 | 12.0 | 0.00 | 0.00 | 0.00 | 82 | |
| 20260506092614 | 52 | 221 | 6.0 | 10.0 | 0.00 | 0.00 | 0.00 | 82 | |
| 20260506092114 | 52 | 253 | 5.0 | 9.0 | 0.00 | 0.00 | 0.00 | 83 | |
| 20260506091615 | 51 | 226 | 4.0 | 9.0 | 0.00 | 0.00 | 0.00 | ||
| 20260506091613 | 51 | 226 | 4.0 | 9.0 | 0.00 | 0.00 | 0.00 | 83 | |
| 20260506091112 | 51 | 235 | 5.0 | 12.0 | 0.00 | 0.00 | 0.00 | 83 | |
| 20260506090612 | 51 | 215 | 5.0 | 11.0 | 0.00 | 0.00 | 0.00 | 83 | |
| 20260506090104 | 51 | 221 | 5.0 | 9.0 | 0.00 | 0.00 | 0.00 | 82 | |
| 20260506085604 | 51 | 249 | 6.0 | 11.0 | 0.00 | 0.00 | 0.00 | 83 | |
| 20260506084603 | 51 | 242 | 7.0 | 12.0 | 0.00 | 0.00 | 0.00 | 82 | |
| 20260506084101 | 51 | 236 | 7.0 | 14.0 | 0.00 | 0.00 | 0.00 | 82 | |
| 20260506084059 | 51 | 236 | 7.0 | 14.0 | 0.00 | 0.00 | 0.00 | 82 | |
| 20260506083557 | 51 | 226 | 8.0 | 17.0 | 0.00 | 0.00 | 0.00 | 82 | |
| 20260506083056 | 52 | 225 | 7.0 | 14.0 | 0.00 | 0.00 | 0.00 | 82 | |
| 20260506082556 | 52 | 232 | 6.0 | 14.0 | 0.00 | 0.00 | 0.00 | 82 | |
| 20260506082051 | 52 | 235 | 5.0 | 12.0 | 0.00 | 0.00 | 0.00 | 82 | |
| 20260506082049 | 52 | 235 | 5.0 | 12.0 | 0.00 | 0.00 | 0.00 | 82 | |
| 20260506081550 | 52 | 222 | 6.0 | 14.0 | 0.00 | 0.00 | 0.00 | 82 | |
| 20260506081047 | 52 | 226 | 6.0 | 12.0 | 0.00 | 0.00 | 0.00 | 82 | |
| 20260506080547 | 52 | 232 | 7.0 | 11.0 | 0.00 | 0.00 | 0.00 | 82 | |
| 20260506080133 | 52 | 212 | 7.0 | 11.0 | 0.00 | 0.00 | 0.00 | 82 | |
| 20260506072533 | 52 | 240 | 6.0 | 10.0 | 0.00 | 0.00 | 0.00 | 83 | |
| 20260506072104 | 52 | 218 | 7.0 | 14.0 | 0.00 | 0.00 | 0.00 | 82 | |
| 20260506072033 | 52 | 218 | 7.0 | 14.0 | 0.00 | 0.00 | 0.00 | 82 | |
| 20260506071532 | 52 | 224 | 6.0 | 12.0 | 0.00 | 0.00 | 0.00 | 82 | |
| 20260506071032 | 52 | 231 | 5.0 | 10.0 | 0.00 | 0.00 | 0.00 | 82 | |
| 20260506070532 | 52 | 221 | 6.0 | 12.0 | 0.00 | 0.00 | 0.00 | 82 | |
| 20260506062026 | 52 | 235 | 6.0 | 13.0 | 0.00 | 0.00 | 0.00 | 80 | |
| 20260506061526 | 52 | 214 | 6.0 | 12.0 | 0.00 | 0.00 | 0.00 | 80 | |
| 20260506061017 | 52 | 257 | 5.0 | 10.0 | 0.00 | 0.00 | 0.00 | 80 | |
| 20260506060515 | 52 | 222 | 5.0 | 9.0 | 0.00 | 0.00 | 0.00 | 80 | |
| 20260506051007 | 53 | 267 | 4.0 | 10.0 | 0.00 | 0.00 | 0.00 | 80 | |
| 20260506050507 | 53 | 233 | 6.0 | 13.0 | 0.00 | 0.00 | 0.00 | 80 | |
| 20260506045002 | 53 | 249 | 4.0 | 8.0 | 0.00 | 0.00 | 0.00 | 80 | |
| 20260506044002 | 53 | 225 | 6.0 | 12.0 | 0.00 | 0.00 | 0.00 | 80 | |
| 20260506043002 | 53 | 238 | 6.0 | 14.0 | 0.00 | 0.00 | 0.00 | 80 | |
| 20260506042452 | 53 | 246 | 6.0 | 16.0 | 0.00 | 0.00 | 0.00 | 80 | |
| 20260506041950 | 54 | 260 | 5.0 | 10.0 | 0.00 | 0.00 | 0.00 | 79 | |
| 20260506041449 | 54 | 271 | 4.0 | 9.0 | 0.00 | 0.00 | 0.00 | 79 | |
| 20260506040949 | 54 | 257 | 6.0 | 11.0 | 0.00 | 0.00 | 0.00 | 79 | |
| 20260506040445 | 54 | 243 | 7.0 | 12.0 | 0.00 | 0.00 | 0.00 | 79 | |
| 20260506035945 | 54 | 242 | 5.0 | 12.0 | 0.00 | 0.00 | 0.00 | 79 | |
| 20260506035445 | 54 | 271 | 4.0 | 9.0 | 0.00 | 0.00 | 0.00 | 79 | |
| 20260506034944 | 54 | 263 | 5.0 | 9.0 | 0.00 | 0.00 | 0.00 | 78 | |
| 20260506034436 | 54 | 248 | 4.0 | 11.0 | 0.00 | 0.00 | 0.00 | 78 | |
| 20260506033934 | 54 | 252 | 6.0 | 12.0 | 0.00 | 0.00 | 0.00 | 78 | |
| 20260506033434 | 54 | 255 | 7.0 | 12.0 | 0.00 | 0.00 | 0.00 | 77 | |
| 20260506032933 | 54 | 255 | 5.0 | 10.0 | 0.00 | 0.00 | 0.00 | 77 | |
| 20260506032433 | 55 | 255 | 7.0 | 14.0 | 0.00 | 0.00 | 0.00 | 77 | |
| 20260506031932 | 55 | 257 | 6.0 | 11.0 | 0.00 | 0.00 | 0.00 | 93 | |
| 20260506031424 | 55 | 257 | 8.0 | 13.0 | 0.00 | 0.00 | 0.00 | 93 | |
| 20260506030915 | 55 | 257 | 7.0 | 13.0 | 0.00 | 0.00 | 0.00 | 92 | |
| 20260506030410 | 55 | 250 | 6.0 | 11.0 | 0.00 | 0.00 | 0.00 | 92 | |
| 20260506025910 | 55 | 252 | 8.0 | 13.0 | 0.00 | 0.00 | 0.00 | 92 | |
| 20260506025908 | 55 | 252 | 8.0 | 13.0 | 0.00 | 0.00 | 0.00 | 92 | |
| 20260506025408 | 56 | 257 | 9.0 | 16.0 | 0.00 | 0.00 | 0.00 | 91 | |
| 20260506025128 | 56 | 257 | 8.0 | 13.0 | 0.00 | 0.00 | 0.00 | 90 | |
| 20260506024907 | 56 | 257 | 8.0 | 13.0 | 0.00 | 0.00 | 0.00 | 90 | |
| 20260506024407 | 56 | 250 | 8.0 | 13.0 | 0.00 | 0.00 | 0.00 | 90 | |
| 20260506023907 | 56 | 259 | 6.0 | 11.0 | 0.00 | 0.00 | 0.00 | 89 | |
| 20260506023403 | 57 | 267 | 6.0 | 10.0 | 0.00 | 0.00 | 0.00 | 88 | |
| 20260506022901 | 57 | 259 | 7.0 | 12.0 | 0.00 | 0.00 | 0.00 | 88 | |
| 20260506022401 | 58 | 257 | 9.0 | 17.0 | 0.00 | 0.00 | 0.00 | 87 | |
| 20260506021900 | 58 | 259 | 7.0 | 13.0 | 0.00 | 0.00 | 0.00 | 87 | |
| 20260506021359 | 58 | 260 | 10.0 | 17.0 | 0.00 | 0.00 | 0.00 | 86 | |
| 20260506021357 | 58 | 260 | 10.0 | 17.0 | 0.00 | 0.00 | 0.00 | 86 | |
| 20260506020846 | 58 | 262 | 12.0 | 20.0 | 0.00 | 0.00 | 0.00 | 87 | |
| 20260506020357 | 58 | 245 | 11.0 | 20.0 | 0.00 | 0.00 | 0.00 | 86 | |
| 20260506015844 | 59 | 255 | 8.0 | 17.0 | 0.00 | 0.00 | 0.00 | 86 | |
| 20260506015343 | 59 | 249 | 10.0 | 18.0 | 0.00 | 0.00 | 0.00 | 85 | |
| 20260506014843 | 59 | 262 | 10.0 | 18.0 | 0.00 | 0.00 | 0.00 | 85 | |
| 20260506014341 | 59 | 245 | 11.0 | 19.0 | 0.00 | 0.00 | 0.00 | 84 | |
| 20260506013841 | 59 | 255 | 12.0 | 23.0 | 0.00 | 0.00 | 0.00 | 84 | |
| 20260506012840 | 60 | 267 | 10.0 | 18.0 | 0.00 | 0.00 | 0.00 | 83 | |
| 20260506012339 | 60 | 255 | 8.0 | 15.0 | 0.00 | 0.00 | 0.00 | 82 | |
| 20260506011839 | 60 | 262 | 10.0 | 21.0 | 0.00 | 0.00 | 0.00 | 82 | |
| 20260506011339 | 61 | 259 | 13.0 | 19.0 | 0.00 | 0.00 | 0.00 | 82 | |
| 20260506010839 | 61 | 253 | 13.0 | 22.0 | 0.00 | 0.00 | 0.00 | 82 | |
| 20260506010338 | 61 | 252 | 13.0 | 22.0 | 0.00 | 0.00 | 0.00 | 81 | |
| 20260506005838 | 61 | 269 | 12.0 | 19.0 | 0.00 | 0.00 | 0.00 | 81 | |
| 20260506005338 | 62 | 271 | 11.0 | 22.0 | 0.00 | 0.00 | 0.00 | 80 | |
| 20260506004837 | 62 | 249 | 12.0 | 20.0 | 0.00 | 0.00 | 0.00 | 79 | |
| 20260506004337 | 62 | 253 | 11.0 | 19.0 | 0.00 | 0.00 | 0.00 | 79 | |
| 20260506003334 | 63 | 253 | 12.0 | 22.0 | 0.00 | 0.00 | 0.00 | 79 | |
| 20260506002834 | 63 | 245 | 14.0 | 22.0 | 0.00 | 0.00 | 0.00 | 78 | |
| 20260506002330 | 63 | 264 | 13.0 | 21.0 | 0.00 | 0.00 | 0.00 | 77 | |
| 20260506001829 | 64 | 259 | 13.0 | 25.0 | 0.00 | 0.00 | 0.00 | 76 | |
| 20260506001329 | 64 | 249 | 13.0 | 21.0 | 0.00 | 0.00 | 0.00 | 76 | |
| 20260506000829 | 64 | 253 | 9.0 | 18.0 | 0.00 | 0.00 | 0.00 | 76 | |
| 20260506000330 | 64 | 240 | 9.0 | 16.0 | 0.00 | 0.00 | 0.00 | 76 | |
| 20260505235822 | 64 | 250 | 13.0 | 25.0 | 0.00 | 0.00 | 0.00 | 76 | |
| 20260505235319 | 64 | 253 | 10.0 | 17.0 | 0.00 | 0.00 | 0.00 | 76 | |
| 20260505234819 | 63 | 249 | 11.0 | 19.0 | 0.00 | 0.00 | 0.00 | 76 | |
| 20260505234319 | 63 | 259 | 11.0 | 20.0 | 0.00 | 0.00 | 0.00 | 77 | |
| 20260505233816 | 64 | 249 | 12.0 | 24.0 | 0.00 | 0.00 | 0.00 | 76 | |
| 20260505233315 | 64 | 255 | 12.0 | 21.0 | 0.00 | 0.00 | 0.00 | 76 | |
| 20260505232810 | 64 | 226 | 13.0 | 25.0 | 0.00 | 0.00 | 0.00 | 76 | |
| 20260505232310 | 64 | 255 | 9.0 | 19.0 | 0.00 | 0.00 | 0.00 | 77 | |
| 20260505231809 | 64 | 249 | 10.0 | 20.0 | 0.00 | 0.00 | 0.00 | 76 | |
| 20260505231306 | 64 | 250 | 11.0 | 22.0 | 0.00 | 0.00 | 0.00 | 76 | |
| 20260505230806 | 63 | 248 | 12.0 | 20.0 | 0.00 | 0.00 | 0.00 | 78 | |
| 20260505230302 | 63 | 255 | 16.0 | 31.0 | 0.00 | 0.00 | 0.00 | 78 | |
| 20260505225802 | 63 | 243 | 12.0 | 21.0 | 0.00 | 0.00 | 0.00 | 77 | |
| 20260505225305 | 63 | 253 | 14.0 | 26.0 | 0.00 | 0.00 | 0.00 | 77 | |
| 20260505224800 | 64 | 256 | 12.0 | 22.0 | 0.00 | 0.00 | 0.00 | 76 | |
| 20260505224300 | 64 | 250 | 15.0 | 25.0 | 0.00 | 0.00 | 0.00 | 75 | |
| 20260505223800 | 65 | 249 | 13.0 | 24.0 | 0.00 | 0.00 | 0.00 | 74 | |
| 20260505222753 | 66 | 229 | 12.0 | 21.0 | 0.00 | 0.00 | 0.00 | 74 | |
| 20260505222252 | 66 | 253 | 11.0 | 23.0 | 0.00 | 0.00 | 0.00 | 73 |